Location: Rumah Dana
(3.1167°N, 113.0167°E)
Time: 03:47:19
(UTC+00:00)

Helios 1A Rocket - Pass Details

Date: 20 January 2026
Orbit: 426 x 436 km, 98.3° (Epoch: 11 February)

Event Time Altitude Azimuth Distance (km) Brightness Sun altitude
Rises 10:53:21 0° 14° (NNE) 2,380 5.7 -4.4°
Reaches altitude 10° 10:55:21 10° 16° (NNE) 1,514 4.7 -4.9°
Maximum altitude 10:58:34 77° 101° (ESE) 440 2.2 -5.7°
Drops below altitude 10° 11:01:48 10° 188° (S) 1,515 5.5 -6.4°
Sets 11:03:48 0° 190° (S) 2,382 6.5 -6.9°
